Terminal Aerodrome Forecast
Issued by NWS Memphis, TN

Home | Current Version | Previous Version | Text Only | Print | Product List | Glossary On
Versions: 1 2 3 4 5 6 7 8 9 10 11 12 13 14 15 16 17 18 19 20 21 22 23 24 25 26 27 28 29 30 31 32 33
563
FTUS44 KMEG 292339
TAFMEM
TAF
KMEM 292339Z 3000/3024 13011KT P6SM VCSH SCT060 BKN100
     FM300400 14010KT P6SM VCTS BKN025CB OVC050
      TEMPO 3009/3012 3SM TSRA BR BKN015CB
     FM301200 16012G20KT 5SM -TSRA BKN025CB OVC040
     FM301600 19015G25KT P6SM SCT050 BKN150
     FM302100 20012G20KT P6SM VCTS SCT050CB BKN250=

USA.gov is the U.S. government's official web portal to all federal, state and local government web resources and services.